Regional Weather Roundup
Issued by NWS

Home | Current Version | Previous Version | Graphics & Text | Print | Product List | Glossary On
Versions: 1 2 3 4 5 6 7 8 9 10 11 12 13 14 15 16 17 18 19 20 21 22 23 24 25 26 27 28 29 30 31 32 33 34 35 36 37 38 39 40 41 42 43 44 45 46 47 48 49 50
000
ASUS43 KLOT 282006
RWRIL

ILLINOIS REGIONAL WEATHER ROUNDUP
NATIONAL WEATHER SERVICE CHICAGO/ROMEOVILLE IL
200 PM CST SUN DEC 28 2014

NOTE: "FAIR" INDICATES FEW OR NO CLOUDS BELOW 12,000 FEET WITH NO
SIGNIFICANT WEATHER AND/OR OBSTRUCTIONS TO VISIBILITY.

* THESE STATIONS ARE NOT UNDER NWS QUALITY CONTROL. THEY ALSO MAY NOT
  REPORT WEATHER SUCH AS PRECIPITATION OR FOG.

ILZ001-002-007-009-015-016-024-282100-
NORTHWEST ILLINOIS

CITY           SKY/WX    TMP DP  RH WIND       PRES   REMARKS
MOLINE         SUNNY     35  17  47 MISG      30.17F
STERLING*      SUNNY     36  18  48 W6        30.18S WCI  31
SAVANNA*       SUNNY     33  18  54 SW5       30.17F WCI  29
$$

ILZ003-004-008-010-011-017-018-282100-
NORTH CENTRAL ILLINOIS

CITY           SKY/WX    TMP DP  RH WIND       PRES   REMARKS
ROCKFORD       MOSUNNY   35  18  49 W8        30.17S WCI  29
FREEPORT*      SUNNY     31  20  62 SW3       30.17S
ROCHELLE*      SUNNY     32  18  55 W7        30.17R WCI  26
DE KALB*       SUNNY     32  17  53 W8        30.15S WCI  25
PERU*          SUNNY     34  15  45 W5        30.18S WCI  30
$$

ILZ005-006-012>014-019>023-282100-
NORTHEAST ILLINOIS

CITY           SKY/WX    TMP DP  RH WIND       PRES   REMARKS
CHICAGO-OHARE  MOSUNNY   34  13  41 W10       30.14R WCI  26
CHICAGO-MIDWAY MOSUNNY   34  17  50 SW6       30.15S WCI  29
AURORA         SUNNY     34  15  46 W8        30.16S WCI  27
LANSING*       PTSUNNY   32  19  58 W6        30.17R WCI  26
JOLIET*        MOSUNNY   30  17  58 W7        30.18R WCI  23
WAUKEGAN       SUNNY     34  18  52 VRB7      30.13S WCI  28
DUPAGE AIRPORT SUNNY     34  16  47 W10       30.14S WCI  26
KANKAKEE*      PTSUNNY   30  22  72 W8        30.18S WCI  23
WHEELING       SUNNY     36  12  37 W14       30.15S WCI  27
MORRIS*        SUNNY     32  21  64 W8        30.17S WCI  25
ROMEOVILLE*    SUNNY     32  17  55 W8        30.17R WCI  25
NORTHERLY ISL    N/A     34  14  44 W7          N/A  WCI  28
$$

LMZ740>746-282100-
SOUTHERN LAKE MICHIGAN

STATION/POSITION SKY/WX   TEMP    WIND        PRES    VSBY  WAVE
                          AIR SEA DIR/SP/G                  HT/PER
                          (F)     (DEG/KT/KT) (MB)    (MI)  (FT/S)
WAUKEGAN HARBOR            34     300/ 11/ 15   N/A
HARRISON CRIB              32     240/  8/  9   N/A
BURNHAM HARBOR             34     220/  6/ 10   N/A
CALUMET HARBOR             33     200/  4/  8 1019.8S
MICHIGAN CITY              30     240/ 11/ 12   N/A
$$

ILZ025>027-034>036-040-047-049-050-058-095>099-282100-
WEST-CENTRAL ILLINOIS

CITY           SKY/WX    TMP DP  RH WIND       PRES   REMARKS
QUINCY         SUNNY     34  21  59 S5        30.17F WCI  30
GALESBURG*     SUNNY     34  21  58 W7        30.17S WCI  28
MACOMB*        SUNNY     36  23  59 S3        30.20S
JACKSONVILLE*  MOSUNNY   35  23  62 W6        30.19F WCI  30
PITTSFIELD*    MOSUNNY   35  25  67 CALM      30.19F
$$

ILZ028>032-037-038-041>044-048-051>054-059>061-282100-
CENTRAL ILLINOIS

CITY           SKY/WX    TMP DP  RH WIND       PRES   REMARKS
PONTIAC        MOSUNNY   32  20  62 W7        30.19R WCI  25
BLOOMINGTON    PTSUNNY   32  22  67 W7        30.18R WCI  26
DECATUR        PTSUNNY   32  23  69 NW6       30.19S WCI  26
PEORIA         SUNNY     35  18  49 SW3       30.19F
LACON*         SUNNY     33  17  53 SW6       30.18S WCI  27
LINCOLN*       PTSUNNY   34  24  66 W6        30.20S WCI  29
SPRINGFIELD    CLOUDY    34  24  67 VRB5      30.20S WCI  30
TAYLORVILLE    CLOUDY    32  27  80 NW6       30.20S WCI  26
$$

ILZ033-039-045-046-055>057-062-063-282100-
EAST-CENTRAL ILLINOIS

CITY           SKY/WX    TMP DP  RH WIND       PRES   REMARKS
CHAMPAIGN      CLOUDY    31  21  66 W7        30.18S WCI  24
DANVILLE*      PTSUNNY   28  22  79 N5        30.16R WCI  22
RANTOUL*       PTSUNNY   32  19  59 NW7       30.18R WCI  26
MATTOON        CLOUDY    31  23  72 NW7       30.19S WCI  24
PARIS*         CLOUDY    31  26  81 NW3       30.20S
$$

ILZ079-100>102-282100-
SOUTHWEST ILLINOIS

CITY           SKY/WX    TMP DP  RH WIND       PRES   REMARKS
BELLEVILLE     CLOUDY    34  27  75 NW3       30.21S
CAHOKIA*       CLOUDY    35  26  69 CALM      30.21S
SPARTA*        CLOUDY    32  27  80 CALM      30.22S
$$

ILZ064>066-069>071-074>076-080>082-084>086-088>090-092>094-282100-
SOUTH-CENTRAL ILLINOIS

CITY           SKY/WX    TMP DP  RH WIND       PRES   REMARKS
CARBONDALE     CLOUDY    34  26  72 NW7       30.20F WCI  28
CAIRO*         CLOUDY    38  31  74 N7        30.19S WCI  33
EFFINGHAM*     PTSUNNY   33  23  67 NW3       30.22R
MARION         CLOUDY    36  28  75 N9        30.20F WCI  29
MT. VERNON     CLOUDY    34  25  69 N5        30.21R WCI  30
CENTRALIA*     CLOUDY    32  26  78 N3        30.20F
SALEM*         CLOUDY    34  27  75 NW5       30.21R WCI  30
METROPOLIS*    CLOUDY    36  33  88 N5        30.18S WCI  32
$$

ILZ067-068-072-073-078-083-087-091-282100-
SOUTHEAST ILLINOIS

CITY           SKY/WX    TMP DP  RH WIND       PRES   REMARKS
LAWRENCEVILLE  CLOUDY    33  26  75 NW5       30.20F WCI  29
FLORA*         CLOUDY    32  26  78 NW3       30.21S
FAIRFIELD*     CLOUDY    33  28  80 NW5       30.19S WCI  29
HARRISBURG*    CLOUDY    34  29  83 N6        30.21S WCI  29
ROBINSON*      CLOUDY    32  26  79 NW7       30.21S WCI  26
CARMI*         CLOUDY    35  32  88 N8        30.19F WCI  29
$$

ABBREVIATIONS USED IN REMARKS
   TC - TEMPERATURE IN CELSIUS
  WCI - WIND CHILL INDEX
   HX - HEAT INDEX
  VSB - VISIBILITY
$$



USA.gov is the U.S. government's official web portal to all federal, state and local government web resources and services.